Time,TemperatureF,DewpointF,PressureIn,WindDirection,WindDirectionDegrees,WindSpeedMPH,WindSpeedGustMPH,Humidity,HourlyPrecipIn,Conditions,Clouds,dailyrainin,SoftwareType,DateUTC
2013-02-28 00:01:00,37.0,31.0,-100.00,East,95,6.0,-999.0,80,0.00,,,-99.99,,2013-02-28 00:01:00,
2013-02-28 00:11:00,37.0,31.0,-100.00,East,95,6.0,-999.0,80,0.00,,,-99.99,,2013-02-28 00:11:00,
2013-02-28 00:21:00,37.0,31.0,-100.00,East,95,6.0,-999.0,80,0.00,,,-99.99,,2013-02-28 00:21:00,
2013-02-28 00:30:00,37.0,31.0,-100.00,East,98,7.0,-999.0,77,0.00,,,-99.99,,2013-02-28 00:30:00,
2013-02-28 00:52:00,37.0,31.0,-100.00,East,98,7.0,-999.0,77,0.00,,,-99.99,,2013-02-28 00:52:00,
2013-02-28 01:01:00,37.0,31.0,-100.00,East,98,7.0,-999.0,77,0.00,,,-99.99,,2013-02-28 01:01:00,
2013-02-28 01:11:00,37.0,31.0,-100.00,East,98,7.0,-999.0,77,0.00,,,-99.99,,2013-02-28 01:11:00,
2013-02-28 01:21:00,37.0,31.0,-100.00,East,98,7.0,-999.0,77,0.00,,,-99.99,,2013-02-28 01:21:00,
2013-02-28 01:30:00,37.0,32.0,-100.00,ESE,115,6.0,-999.0,82,0.00,,,-99.99,,2013-02-28 01:30:00,
2013-02-28 01:52:00,37.0,32.0,-100.00,ESE,115,6.0,-999.0,82,0.00,,,-99.99,,2013-02-28 01:52:00,
2013-02-28 02:01:00,37.0,32.0,-100.00,ESE,115,6.0,-999.0,82,0.00,,,-99.99,,2013-02-28 02:01:00,
2013-02-28 02:11:00,37.0,32.0,-100.00,ESE,115,6.0,-999.0,82,0.00,,,-99.99,,2013-02-28 02:11:00,
2013-02-28 02:21:00,37.0,32.0,-100.00,ESE,115,6.0,-999.0,82,0.00,,,-99.99,,2013-02-28 02:21:00,
2013-02-28 02:30:00,37.0,32.0,-100.00,ENE,68,4.0,-999.0,84,0.00,,,-99.99,,2013-02-28 02:30:00,
2013-02-28 03:01:00,37.0,32.0,-100.00,ENE,68,4.0,-999.0,84,0.00,,,-99.99,,2013-02-28 03:01:00,
2013-02-28 03:11:00,37.0,32.0,-100.00,ENE,68,4.0,-999.0,84,0.00,,,-99.99,,2013-02-28 03:11:00,
2013-02-28 03:21:00,37.0,32.0,-100.00,ENE,68,4.0,-999.0,84,0.00,,,-99.99,,2013-02-28 03:21:00,
2013-02-28 03:30:00,36.0,33.0,-100.00,East,89,7.0,-999.0,87,0.02,,,-99.99,,2013-02-28 03:30:00,
2013-02-28 03:52:00,36.0,33.0,-100.00,East,89,7.0,-999.0,87,0.02,,,-99.99,,2013-02-28 03:52:00,
2013-02-28 04:01:00,36.0,33.0,-100.00,East,89,7.0,-999.0,87,0.02,,,-99.99,,2013-02-28 04:01:00,
2013-02-28 04:11:00,36.0,33.0,-100.00,East,89,7.0,-999.0,87,0.02,,,-99.99,,2013-02-28 04:11:00,
2013-02-28 04:21:00,36.0,33.0,-100.00,East,89,7.0,-999.0,87,0.02,,,-99.99,,2013-02-28 04:21:00,
2013-02-28 04:30:00,35.0,32.0,-100.00,ESE,119,5.0,-999.0,91,0.01,,,-99.99,,2013-02-28 04:30:00,
2013-02-28 04:52:00,35.0,32.0,-100.00,ESE,119,5.0,-999.0,91,0.01,,,-99.99,,2013-02-28 04:52:00,
2013-02-28 05:01:00,35.0,32.0,-100.00,ESE,119,5.0,-999.0,91,0.01,,,-99.99,,2013-02-28 05:01:00,
2013-02-28 05:11:00,35.0,32.0,-100.00,ESE,119,5.0,-999.0,91,0.01,,,-99.99,,2013-02-28 05:11:00,
2013-02-28 05:22:00,35.0,32.0,-100.00,ESE,119,5.0,-999.0,91,0.01,,,-99.99,,2013-02-28 05:22:00,
2013-02-28 05:30:00,35.0,33.0,-100.00,ENE,71,9.0,-999.0,92,0.02,,,-99.99,,2013-02-28 05:30:00,
2013-02-28 05:52:00,35.0,33.0,-100.00,ENE,71,9.0,-999.0,92,0.02,,,-99.99,,2013-02-28 05:52:00,
2013-02-28 06:01:00,35.0,33.0,-100.00,ENE,71,9.0,-999.0,92,0.02,,,-99.99,,2013-02-28 06:01:00,
2013-02-28 06:11:00,35.0,33.0,-100.00,ENE,71,9.0,-999.0,92,0.02,,,-99.99,,2013-02-28 06:11:00,
2013-02-28 06:22:00,35.0,33.0,-100.00,ENE,71,9.0,-999.0,92,0.02,,,-99.99,,2013-02-28 06:22:00,
2013-02-28 06:30:00,35.0,33.0,-100.00,ENE,72,7.0,-999.0,93,0.00,,,-99.99,,2013-02-28 06:30:00,
2013-02-28 06:52:00,35.0,33.0,-100.00,ENE,72,7.0,-999.0,93,0.00,,,-99.99,,2013-02-28 06:52:00,
2013-02-28 07:01:00,35.0,33.0,-100.00,ENE,72,7.0,-999.0,93,0.00,,,-99.99,,2013-02-28 07:01:00,
2013-02-28 07:11:00,35.0,33.0,-100.00,ENE,72,7.0,-999.0,93,0.00,,,-99.99,,2013-02-28 07:11:00,
2013-02-28 07:21:00,35.0,33.0,-100.00,ENE,72,7.0,-999.0,93,0.00,,,-99.99,,2013-02-28 07:21:00,
2013-02-28 07:30:00,35.0,33.0,-100.00,East,92,5.0,-999.0,93,0.00,,,-99.99,,2013-02-28 07:30:00,
2013-02-28 07:52:00,35.0,33.0,-100.00,East,92,5.0,-999.0,93,0.00,,,-99.99,,2013-02-28 07:52:00,
2013-02-28 08:01:00,35.0,33.0,-100.00,East,92,5.0,-999.0,93,0.00,,,-99.99,,2013-02-28 08:01:00,
2013-02-28 08:11:00,35.0,33.0,-100.00,East,92,5.0,-999.0,93,0.00,,,-99.99,,2013-02-28 08:11:00,
2013-02-28 08:21:00,35.0,33.0,-100.00,East,92,5.0,-999.0,93,0.00,,,-99.99,,2013-02-28 08:21:00,
2013-02-28 08:30:00,35.0,33.0,-100.00,ESE,123,4.0,-999.0,93,0.00,,,-99.99,,2013-02-28 08:30:00,
2013-02-28 08:53:00,35.0,33.0,-100.00,ESE,123,4.0,-999.0,93,0.00,,,-99.99,,2013-02-28 08:53:00,
2013-02-28 09:03:00,35.0,33.0,-100.00,ESE,123,4.0,-999.0,93,0.00,,,-99.99,,2013-02-28 09:03:00,
2013-02-28 09:11:00,35.0,33.0,-100.00,ESE,123,4.0,-999.0,93,0.00,,,-99.99,,2013-02-28 09:11:00,
2013-02-28 09:21:00,35.0,33.0,-100.00,ESE,123,4.0,-999.0,93,0.00,,,-99.99,,2013-02-28 09:21:00,
2013-02-28 09:30:00,34.0,32.0,-100.00,SE,135,6.0,-999.0,94,0.01,,,-99.99,,2013-02-28 09:30:00,
2013-02-28 09:52:00,34.0,32.0,-100.00,SE,135,6.0,-999.0,94,0.01,,,-99.99,,2013-02-28 09:52:00,
2013-02-28 10:01:00,34.0,32.0,-100.00,SE,135,6.0,-999.0,94,0.01,,,-99.99,,2013-02-28 10:01:00,
2013-02-28 10:11:00,34.0,32.0,-100.00,SE,135,6.0,-999.0,94,0.01,,,-99.99,,2013-02-28 10:11:00,
2013-02-28 10:21:00,34.0,32.0,-100.00,SE,135,6.0,-999.0,94,0.01,,,-99.99,,2013-02-28 10:21:00,
2013-02-28 10:30:00,33.0,32.0,-100.00,SW,233,1.0,-999.0,95,0.01,,,-99.99,,2013-02-28 10:30:00,
2013-02-28 10:52:00,33.0,32.0,-100.00,SW,233,1.0,-999.0,95,0.01,,,-99.99,,2013-02-28 10:52:00,
2013-02-28 11:01:00,33.0,32.0,-100.00,SW,233,1.0,-999.0,95,0.01,,,-99.99,,2013-02-28 11:01:00,
2013-02-28 11:11:00,33.0,32.0,-100.00,SW,233,1.0,-999.0,95,0.01,,,-99.99,,2013-02-28 11:11:00,
2013-02-28 11:21:00,33.0,32.0,-100.00,SW,233,1.0,-999.0,95,0.01,,,-99.99,,2013-02-28 11:21:00,
2013-02-28 11:30:00,34.0,32.0,-100.00,South,180,3.0,-999.0,94,0.00,,,-99.99,,2013-02-28 11:30:00,
2013-02-28 11:52:00,34.0,32.0,-100.00,South,180,3.0,-999.0,94,0.00,,,-99.99,,2013-02-28 11:52:00,
2013-02-28 12:01:00,34.0,32.0,-100.00,South,180,3.0,-999.0,94,0.00,,,-99.99,,2013-02-28 12:01:00,
2013-02-28 12:11:00,34.0,32.0,-100.00,South,180,3.0,-999.0,94,0.00,,,-99.99,,2013-02-28 12:11:00,
2013-02-28 12:21:00,34.0,32.0,-100.00,South,180,3.0,-999.0,94,0.00,,,-99.99,,2013-02-28 12:21:00,
2013-02-28 12:30:00,34.0,32.0,-100.00,West,275,1.0,-999.0,91,0.00,,,-99.99,,2013-02-28 12:30:00,
2013-02-28 12:52:00,34.0,32.0,-100.00,West,275,1.0,-999.0,91,0.00,,,-99.99,,2013-02-28 12:52:00,
2013-02-28 13:01:00,34.0,32.0,-100.00,West,275,1.0,-999.0,91,0.00,,,-99.99,,2013-02-28 13:01:00,
2013-02-28 13:11:00,34.0,32.0,-100.00,West,275,1.0,-999.0,91,0.00,,,-99.99,,2013-02-28 13:11:00,
2013-02-28 13:21:00,34.0,32.0,-100.00,West,275,1.0,-999.0,91,0.00,,,-99.99,,2013-02-28 13:21:00,
2013-02-28 13:30:00,34.0,31.0,-100.00,NE,51,2.0,-999.0,92,0.00,,,-99.99,,2013-02-28 13:30:00,
2013-02-28 13:52:00,34.0,31.0,-100.00,NE,51,2.0,-999.0,92,0.00,,,-99.99,,2013-02-28 13:52:00,
2013-02-28 14:01:00,34.0,31.0,-100.00,NE,51,2.0,-999.0,92,0.00,,,-99.99,,2013-02-28 14:01:00,
2013-02-28 14:11:00,34.0,31.0,-100.00,NE,51,2.0,-999.0,92,0.00,,,-99.99,,2013-02-28 14:11:00,
2013-02-28 14:21:00,34.0,31.0,-100.00,NE,51,2.0,-999.0,92,0.00,,,-99.99,,2013-02-28 14:21:00,
2013-02-28 14:30:00,34.0,32.0,-100.00,ENE,65,5.0,-999.0,92,0.00,,,-99.99,,2013-02-28 14:30:00,
2013-02-28 14:52:00,34.0,32.0,-100.00,ENE,65,5.0,-999.0,92,0.00,,,-99.99,,2013-02-28 14:52:00,
2013-02-28 15:02:00,34.0,32.0,-100.00,ENE,65,5.0,-999.0,92,0.00,,,-99.99,,2013-02-28 15:02:00,
2013-02-28 15:11:00,34.0,32.0,-100.00,ENE,65,5.0,-999.0,92,0.00,,,-99.99,,2013-02-28 15:11:00,
2013-02-28 15:21:00,34.0,32.0,-100.00,ENE,65,5.0,-999.0,92,0.00,,,-99.99,,2013-02-28 15:21:00,
2013-02-28 15:30:00,34.0,32.0,-100.00,NNE,32,7.0,-999.0,92,0.00,,,-99.99,,2013-02-28 15:30:00,
2013-02-28 15:52:00,34.0,32.0,-100.00,NNE,32,7.0,-999.0,92,0.00,,,-99.99,,2013-02-28 15:52:00,
2013-02-28 16:01:00,34.0,32.0,-100.00,NNE,32,7.0,-999.0,92,0.00,,,-99.99,,2013-02-28 16:01:00,
2013-02-28 16:11:00,34.0,32.0,-100.00,NNE,32,7.0,-999.0,92,0.00,,,-99.99,,2013-02-28 16:11:00,
2013-02-28 16:21:00,34.0,32.0,-100.00,NNE,32,7.0,-999.0,92,0.00,,,-99.99,,2013-02-28 16:21:00,
2013-02-28 16:30:00,33.0,32.0,-100.00,ENE,76,5.0,-999.0,94,0.00,,,-99.99,,2013-02-28 16:30:00,
2013-02-28 16:52:00,33.0,32.0,-100.00,ENE,76,5.0,-999.0,94,0.00,,,-99.99,,2013-02-28 16:52:00,
2013-02-28 17:01:00,33.0,32.0,-100.00,ENE,76,5.0,-999.0,94,0.00,,,-99.99,,2013-02-28 17:01:00,
2013-02-28 17:11:00,33.0,32.0,-100.00,ENE,76,5.0,-999.0,94,0.00,,,-99.99,,2013-02-28 17:11:00,
2013-02-28 17:21:00,33.0,32.0,-100.00,ENE,76,5.0,-999.0,94,0.00,,,-99.99,,2013-02-28 17:21:00,
2013-02-28 17:30:00,33.0,32.0,-100.00,NE,50,6.0,-999.0,94,0.00,,,-99.99,,2013-02-28 17:30:00,
2013-02-28 17:52:00,33.0,32.0,-100.00,NE,50,6.0,-999.0,94,0.00,,,-99.99,,2013-02-28 17:52:00,
2013-02-28 18:02:00,33.0,32.0,-100.00,NE,50,6.0,-999.0,94,0.00,,,-99.99,,2013-02-28 18:02:00,
2013-02-28 18:11:00,33.0,32.0,-100.00,NE,50,6.0,-999.0,94,0.00,,,-99.99,,2013-02-28 18:11:00,
2013-02-28 18:21:00,33.0,32.0,-100.00,NE,50,6.0,-999.0,94,0.00,,,-99.99,,2013-02-28 18:21:00,
2013-02-28 18:30:00,33.0,32.0,-100.00,North,6,1.0,-999.0,96,0.00,,,-99.99,,2013-02-28 18:30:00,
2013-02-28 18:52:00,33.0,32.0,-100.00,North,6,1.0,-999.0,96,0.00,,,-99.99,,2013-02-28 18:52:00,
2013-02-28 19:01:00,33.0,32.0,-100.00,North,6,1.0,-999.0,96,0.00,,,-99.99,,2013-02-28 19:01:00,
2013-02-28 19:11:00,33.0,32.0,-100.00,North,6,1.0,-999.0,96,0.00,,,-99.99,,2013-02-28 19:11:00,
2013-02-28 19:21:00,33.0,32.0,-100.00,North,6,1.0,-999.0,96,0.00,,,-99.99,,2013-02-28 19:21:00,
2013-02-28 19:30:00,33.0,32.0,-100.00,North,351,2.0,-999.0,96,0.00,,,-99.99,,2013-02-28 19:30:00,
2013-02-28 19:52:00,33.0,32.0,-100.00,North,351,2.0,-999.0,96,0.00,,,-99.99,,2013-02-28 19:52:00,
2013-02-28 20:01:00,33.0,32.0,-100.00,North,351,2.0,-999.0,96,0.00,,,-99.99,,2013-02-28 20:01:00,
2013-02-28 20:11:00,33.0,32.0,-100.00,North,351,2.0,-999.0,96,0.00,,,-99.99,,2013-02-28 20:11:00,
2013-02-28 20:21:00,33.0,32.0,-100.00,North,351,2.0,-999.0,96,0.00,,,-99.99,,2013-02-28 20:21:00,
2013-02-28 20:30:00,34.0,32.0,-100.00,NE,49,3.0,-999.0,94,0.00,,,-99.99,,2013-02-28 20:30:00,
2013-02-28 20:52:00,34.0,32.0,-100.00,NE,49,3.0,-999.0,94,0.00,,,-99.99,,2013-02-28 20:52:00,
2013-02-28 21:01:00,34.0,32.0,-100.00,NE,49,3.0,-999.0,94,0.00,,,-99.99,,2013-02-28 21:01:00,
2013-02-28 21:11:00,34.0,32.0,-100.00,NE,49,3.0,-999.0,94,0.00,,,-99.99,,2013-02-28 21:11:00,
2013-02-28 21:22:00,34.0,32.0,-100.00,NE,49,3.0,-999.0,94,0.00,,,-99.99,,2013-02-28 21:22:00,
2013-02-28 21:30:00,34.0,30.0,-100.00,East,82,3.0,-999.0,86,0.00,,,-99.99,,2013-02-28 21:30:00,
2013-02-28 21:52:00,34.0,30.0,-100.00,East,82,3.0,-999.0,86,0.00,,,-99.99,,2013-02-28 21:52:00,
2013-02-28 22:01:00,34.0,30.0,-100.00,East,82,3.0,-999.0,86,0.00,,,-99.99,,2013-02-28 22:01:00,
2013-02-28 22:11:00,34.0,30.0,-100.00,East,82,3.0,-999.0,86,0.00,,,-99.99,,2013-02-28 22:11:00,
2013-02-28 22:21:00,34.0,30.0,-100.00,East,82,3.0,-999.0,86,0.00,,,-99.99,,2013-02-28 22:21:00,
2013-02-28 22:30:00,36.0,31.0,-100.00,SW,232,1.0,-999.0,82,0.00,,,-99.99,,2013-02-28 22:30:00,
2013-02-28 22:52:00,36.0,31.0,-100.00,SW,232,1.0,-999.0,82,0.00,,,-99.99,,2013-02-28 22:52:00,
2013-02-28 23:01:00,36.0,31.0,-100.00,SW,232,1.0,-999.0,82,0.00,,,-99.99,,2013-02-28 23:01:00,
2013-02-28 23:11:00,36.0,31.0,-100.00,SW,232,1.0,-999.0,82,0.00,,,-99.99,,2013-02-28 23:11:00,
2013-02-28 23:21:00,36.0,31.0,-100.00,SW,232,1.0,-999.0,82,0.00,,,-99.99,,2013-02-28 23:21:00,
2013-02-28 23:30:00,36.0,30.0,-100.00,NE,48,2.0,-999.0,79,0.00,,,-99.99,,2013-02-28 23:30:00,
2013-02-28 23:53:00,36.0,30.0,-100.00,NE,48,2.0,-999.0,79,0.00,,,-99.99,,2013-02-28 23:53:00,